Simultaneous Nadir Overpasses (SNOs) Predictions

Prediction of SNOs between METOP-C and LANDSAT-8 Satellite Orbit:

Table of predicted SNOs for the next 14.0 days since TLE Epoch: 3/5/2022
Index Date (METOP-C) Time (METOP-C) Lat,Lon (METOP-C) SZA (METOP-C ) Date (LANDSAT-8) Time (LANDSAT-8) Lat,Lon (LANDSAT-8) SZA (LANDSAT-8 ) Distance(km) Time Diff (sec)
1 03/07/2022 12:52:27 81.09, 25.76 87.91 03/07/2022 12:52:49 81.09, 25.89 87.93 2.37 22
2 03/07/2022 13:43:07 -81.11,-166.20 92.02 03/07/2022 13:42:15 -81.11,-166.17 92.04 0.52 52
3 03/10/2022 08:26:50 81.09, 92.27 86.84 03/10/2022 08:27:03 81.10, 92.42 86.86 2.72 13
4 03/10/2022 09:17:30 -81.12, -99.69 93.09 03/10/2022 09:16:29 -81.12, -99.61 93.11 1.46 61
5 03/13/2022 04:01:12 81.09, 158.75 85.77 03/13/2022 04:01:16 81.10, 158.87 85.78 2.23 4
6 03/13/2022 04:51:52 -81.12, -33.23 94.17 03/13/2022 04:50:42 -81.12, -33.13 94.18 1.73 70
7 03/15/2022 22:44:57 -81.07, 57.20 95.39 03/15/2022 22:46:05 -81.07, 57.26 95.36 1.09 68
8 03/15/2022 23:35:35 81.10,-134.80 84.68 03/15/2022 23:35:30 81.10,-134.74 84.69 0.95 5
9 03/18/2022 18:19:20 -81.07, 123.60 96.48 03/18/2022 18:20:19 -81.06, 123.60 96.46 0.51 59



Historial Predications of SNOs between METOP-C and LANDSAT-8
